TimeCST,TemperatureF,Dew PointF,Humidity,Sea Level PressureIn,VisibilityMPH,Wind Direction,Wind SpeedMPH,Gust SpeedMPH,PrecipitationIn,Events,Conditions,WindDirDegrees,DateUTC
12:15 AM,32.0,30.2,93,30.20,10.0,Calm,Calm,-,N/A,,Clear,0,2012-12-06 06:15:00
7:35 AM,37.4,37.4,100,30.18,10.0,Calm,Calm,-,N/A,,Overcast,0,2012-12-06 13:35:00
7:55 AM,39.2,37.4,93,30.18,10.0,Calm,Calm,-,N/A,,Overcast,0,2012-12-06 13:55:00
8:15 AM,39.2,39.2,100,30.18,10.0,Calm,Calm,-,N/A,,Overcast,0,2012-12-06 14:15:00
8:35 AM,42.8,41.0,93,30.18,10.0,Calm,Calm,-,N/A,,Overcast,0,2012-12-06 14:35:00
9:15 AM,44.6,42.8,93,30.18,10.0,Calm,Calm,-,N/A,,Overcast,0,2012-12-06 15:15:00
9:35 AM,46.4,44.6,93,30.18,10.0,Calm,Calm,-,N/A,,Overcast,0,2012-12-06 15:35:00
9:55 AM,48.2,44.6,87,30.18,10.0,Calm,Calm,-,N/A,,Overcast,0,2012-12-06 15:55:00
10:15 AM,48.2,42.8,82,30.18,10.0,Calm,Calm,-,N/A,,Overcast,0,2012-12-06 16:15:00
10:35 AM,51.8,44.6,76,30.17,10.0,Calm,Calm,-,N/A,,Overcast,0,2012-12-06 16:35:00
10:55 AM,51.8,42.8,71,30.16,10.0,Calm,Calm,-,N/A,,Overcast,0,2012-12-06 16:55:00
11:15 AM,53.6,42.8,67,30.15,10.0,South,5.8,-,N/A,,Overcast,170,2012-12-06 17:15:00
11:35 AM,53.6,42.8,67,30.15,10.0,SE,3.5,-,N/A,,Overcast,140,2012-12-06 17:35:00
11:55 AM,51.8,42.8,71,30.14,10.0,SSE,4.6,-,N/A,,Overcast,160,2012-12-06 17:55:00
12:15 PM,51.8,42.8,71,30.14,10.0,SSE,3.5,-,N/A,,Overcast,150,2012-12-06 18:15:00
12:35 PM,51.8,42.8,71,30.13,10.0,ESE,4.6,-,N/A,,Overcast,120,2012-12-06 18:35:00
12:55 PM,51.8,42.8,71,30.13,10.0,Calm,Calm,-,N/A,Rain,Light Rain,0,2012-12-06 18:55:00
1:15 PM,53.6,44.6,72,30.12,10.0,Calm,Calm,-,N/A,,Overcast,0,2012-12-06 19:15:00
1:35 PM,53.6,44.6,72,30.12,10.0,Calm,Calm,-,N/A,,Overcast,0,2012-12-06 19:35:00
1:55 PM,53.6,44.6,72,30.12,10.0,Calm,Calm,-,N/A,,Mostly Cloudy,0,2012-12-06 19:55:00
2:15 PM,53.6,44.6,72,30.13,10.0,Calm,Calm,-,N/A,,Light Drizzle,0,2012-12-06 20:15:00
2:35 PM,51.8,46.4,82,30.13,5.0,SSE,3.5,-,N/A,Rain,Rain,150,2012-12-06 20:35:00
2:55 PM,50.0,46.4,87,30.13,10.0,Calm,Calm,-,N/A,Rain,Light Rain,0,2012-12-06 20:55:00
3:15 PM,51.8,48.2,88,30.13,10.0,South,3.5,-,N/A,,Overcast,180,2012-12-06 21:15:00
3:35 PM,51.8,46.4,82,30.13,10.0,South,3.5,-,N/A,,Overcast,190,2012-12-06 21:35:00
3:55 PM,50.0,46.4,87,30.13,10.0,Calm,Calm,-,N/A,,Overcast,0,2012-12-06 21:55:00
4:15 PM,50.0,46.4,87,30.13,10.0,Calm,Calm,-,N/A,,Overcast,0,2012-12-06 22:15:00
4:35 PM,50.0,46.4,87,30.13,10.0,Calm,Calm,-,N/A,,Overcast,0,2012-12-06 22:35:00
4:55 PM,50.0,44.6,82,30.13,10.0,Calm,Calm,-,N/A,,Overcast,0,2012-12-06 22:55:00
5:15 PM,50.0,44.6,82,30.13,10.0,Calm,Calm,-,N/A,,Overcast,0,2012-12-06 23:15:00
5:35 PM,48.2,46.4,93,30.12,10.0,West,3.5,-,N/A,,Overcast,260,2012-12-06 23:35:00
5:55 PM,48.2,46.4,93,30.12,10.0,Calm,Calm,-,N/A,,Overcast,0,2012-12-06 23:55:00
6:15 PM,48.2,46.4,93,30.12,10.0,WSW,3.5,-,N/A,,Mostly Cloudy,240,2012-12-07 00:15:00
6:35 PM,48.2,46.4,93,30.13,10.0,WSW,4.6,-,N/A,,Overcast,240,2012-12-07 00:35:00
6:55 PM,48.2,46.4,93,30.13,10.0,WSW,3.5,-,N/A,,Overcast,250,2012-12-07 00:55:00
7:15 PM,50.0,44.6,82,30.12,10.0,West,3.5,-,N/A,,Mostly Cloudy,260,2012-12-07 01:15:00
7:35 PM,50.0,46.4,87,30.12,10.0,WSW,3.5,-,N/A,,Mostly Cloudy,240,2012-12-07 01:35:00
7:55 PM,48.2,46.4,93,30.11,10.0,Calm,Calm,-,N/A,,Scattered Clouds,0,2012-12-07 01:55:00
8:35 PM,48.2,46.4,93,30.11,10.0,Calm,Calm,-,N/A,,Overcast,0,2012-12-07 02:35:00
8:55 PM,48.2,46.4,93,30.11,10.0,Calm,Calm,-,N/A,,Overcast,0,2012-12-07 02:55:00
9:15 PM,48.2,46.4,93,30.11,10.0,Calm,Calm,-,N/A,,Overcast,0,2012-12-07 03:15:00
9:35 PM,48.2,46.4,93,30.10,10.0,Calm,Calm,-,N/A,,Overcast,0,2012-12-07 03:35:00
9:55 PM,46.4,46.4,100,30.10,10.0,Calm,Calm,-,N/A,,Scattered Clouds,0,2012-12-07 03:55:00
10:15 PM,46.4,46.4,100,30.10,10.0,Calm,Calm,-,N/A,,Scattered Clouds,0,2012-12-07 04:15:00
10:35 PM,44.6,44.6,100,30.09,10.0,Calm,Calm,-,N/A,,Clear,0,2012-12-07 04:35:00
10:55 PM,44.6,44.6,100,30.09,10.0,Calm,Calm,-,N/A,,Clear,0,2012-12-07 04:55:00
11:15 PM,44.6,44.6,100,30.08,10.0,Calm,Calm,-,N/A,,Clear,0,2012-12-07 05:15:00
11:35 PM,44.6,44.6,100,30.09,10.0,Calm,Calm,-,N/A,,Mostly Cloudy,0,2012-12-07 05:35:00
11:55 PM,44.6,44.6,100,30.08,10.0,Calm,Calm,-,N/A,,Overcast,0,2012-12-07 05:55:00